Time,TemperatureF,DewpointF,PressureIn,WindDirection,WindDirectionDegrees,WindSpeedMPH,WindSpeedGustMPH,Humidity,HourlyPrecipIn,Conditions,Clouds,dailyrainin,SoftwareType,DateUTC
2013-11-06 00:22:00,33.0,33.0,-100.00,NW,315,4.0,-999.0,100,-99.99,,,-99.99,,2013-11-06 06:22:00,
2013-11-06 00:42:00,33.0,33.0,-100.00,NW,315,4.0,-999.0,99,-99.99,,,-99.99,,2013-11-06 06:42:00,
2013-11-06 00:52:00,33.0,33.0,-100.00,NW,315,4.0,-999.0,99,-99.99,,,-99.99,,2013-11-06 06:52:00,
2013-11-06 01:22:00,33.0,32.0,-100.00,NW,315,5.0,-999.0,97,-99.99,,,-99.99,,2013-11-06 07:22:00,
2013-11-06 01:52:00,33.0,32.0,-100.00,NW,315,4.0,-999.0,95,-99.99,,,-99.99,,2013-11-06 07:52:00,
2013-11-06 02:22:00,33.0,31.0,-100.00,NW,315,4.0,-999.0,94,-99.99,,,-99.99,,2013-11-06 08:22:00,
2013-11-06 02:52:00,33.0,32.0,-100.00,WNW,292,3.0,-999.0,95,-99.99,,,-99.99,,2013-11-06 08:52:00,
2013-11-06 03:22:00,33.0,32.0,-100.00,SSW,202,3.0,-999.0,95,-99.99,,,-99.99,,2013-11-06 09:22:00,
2013-11-06 03:53:00,33.0,31.0,-100.00,WNW,292,3.0,-999.0,94,-99.99,,,-99.99,,2013-11-06 09:53:00,
2013-11-06 04:23:00,33.0,31.0,-100.00,NW,315,4.0,-999.0,94,-99.99,,,-99.99,,2013-11-06 10:23:00,
2013-11-06 04:52:00,33.0,31.0,-100.00,NW,315,4.0,-999.0,94,-99.99,,,-99.99,,2013-11-06 10:52:00,
2013-11-06 05:22:00,33.0,31.0,-100.00,NW,315,4.0,-999.0,93,-99.99,,,-99.99,,2013-11-06 11:22:00,
2013-11-06 05:52:00,33.0,31.0,-100.00,NW,315,3.0,-999.0,93,-99.99,,,-99.99,,2013-11-06 11:52:00,
2013-11-06 06:22:00,33.0,31.0,-100.00,NW,315,3.0,-999.0,93,-99.99,,,-99.99,,2013-11-06 12:22:00,
2013-11-06 06:52:00,33.0,31.0,-100.00,NW,315,3.0,-999.0,92,-99.99,,,-99.99,,2013-11-06 12:52:00,
2013-11-06 07:22:00,33.0,31.0,-100.00,NW,315,2.0,-999.0,92,-99.99,,,-99.99,,2013-11-06 13:22:00,
2013-11-06 07:42:00,33.0,30.0,-100.00,NW,315,3.0,-999.0,91,-99.99,,,-99.99,,2013-11-06 13:42:00,
2013-11-06 07:52:00,33.0,30.0,-100.00,NW,315,3.0,-999.0,91,-99.99,,,-99.99,,2013-11-06 13:52:00,
2013-11-06 08:22:00,33.0,31.0,-100.00,NW,315,3.0,-999.0,91,-99.99,,,-99.99,,2013-11-06 14:22:00,
2013-11-06 08:52:00,33.0,31.0,-100.00,NW,315,2.0,-999.0,91,-99.99,,,-99.99,,2013-11-06 14:52:00,
2013-11-06 09:22:00,33.0,31.0,-100.00,NW,315,2.0,-999.0,91,-99.99,,,-99.99,,2013-11-06 15:22:00,
2013-11-06 09:54:00,33.0,30.0,-100.00,WNW,292,3.0,-999.0,88,-99.99,,,-99.99,,2013-11-06 15:54:00,
2013-11-06 10:23:00,34.0,30.0,-100.00,NW,315,2.0,-999.0,86,-99.99,,,-99.99,,2013-11-06 16:23:00,
2013-11-06 10:53:00,35.0,31.0,-100.00,WNW,292,3.0,-999.0,85,-99.99,,,-99.99,,2013-11-06 16:53:00,
2013-11-06 11:23:00,36.0,31.0,-100.00,NW,315,2.0,-999.0,82,-99.99,,,-99.99,,2013-11-06 17:23:00,
2013-11-06 11:52:00,37.0,31.0,-100.00,WNW,292,3.0,-999.0,80,-99.99,,,-99.99,,2013-11-06 17:52:00,
2013-11-06 12:22:00,37.0,31.0,-100.00,NW,315,2.0,-999.0,76,-99.99,,,-99.99,,2013-11-06 18:22:00,
2013-11-06 12:52:00,39.0,31.0,-100.00,West,270,1.0,-999.0,72,-99.99,,,-99.99,,2013-11-06 18:52:00,
2013-11-06 13:21:00,40.0,30.0,-100.00,West,270,2.0,-999.0,68,-99.99,,,-99.99,,2013-11-06 19:21:00,
2013-11-06 13:52:00,40.0,30.0,-100.00,WNW,292,2.0,-999.0,68,-99.99,,,-99.99,,2013-11-06 19:52:00,
2013-11-06 14:22:00,40.0,30.0,-100.00,WNW,292,2.0,-999.0,67,-99.99,,,-99.99,,2013-11-06 20:22:00,
2013-11-06 14:42:00,40.0,30.0,-100.00,West,270,2.0,-999.0,66,-99.99,,,-99.99,,2013-11-06 20:42:00,
2013-11-06 14:52:00,40.0,30.0,-100.00,West,270,2.0,-999.0,66,-99.99,,,-99.99,,2013-11-06 20:52:00,
2013-11-06 15:22:00,43.0,31.0,-100.00,WSW,247,1.0,-999.0,63,-99.99,,,-99.99,,2013-11-06 21:22:00,
2013-11-06 15:54:00,40.0,31.0,-100.00,West,270,1.0,-999.0,68,-99.99,,,-99.99,,2013-11-06 21:54:00,
2013-11-06 16:23:00,40.0,31.0,-100.00,WSW,247,1.0,-999.0,69,-99.99,,,-99.99,,2013-11-06 22:23:00,
2013-11-06 16:53:00,40.0,32.0,-100.00,SSW,202,0.0,-999.0,71,-99.99,,,-99.99,,2013-11-06 22:53:00,
2013-11-06 17:22:00,39.0,31.0,-100.00,West,270,2.0,-999.0,73,-99.99,,,-99.99,,2013-11-06 23:22:00,
2013-11-06 17:53:00,37.0,32.0,-100.00,West,270,1.0,-999.0,79,-99.99,,,-99.99,,2013-11-06 23:53:00,
2013-11-06 18:22:00,36.0,31.0,-100.00,West,270,1.0,-999.0,80,-99.99,,,-99.99,,2013-11-07 00:22:00,
2013-11-06 18:32:00,36.0,31.0,-100.00,West,270,1.0,-999.0,80,-99.99,,,-99.99,,2013-11-07 00:32:00,
2013-11-06 18:52:00,36.0,31.0,-100.00,West,270,1.0,-999.0,80,-99.99,,,-99.99,,2013-11-07 00:52:00,
2013-11-06 19:52:00,31.0,30.0,-100.00,South,180,0.0,-999.0,94,-99.99,,,-99.99,,2013-11-07 01:52:00,
2013-11-06 20:22:00,32.0,31.0,-100.00,South,180,0.0,-999.0,97,-99.99,,,-99.99,,2013-11-07 02:22:00,
2013-11-06 21:21:00,31.0,30.0,-100.00,SSW,202,1.0,-999.0,95,-99.99,,,-99.99,,2013-11-07 03:21:00,
2013-11-06 21:55:00,31.0,30.0,-100.00,SSW,202,1.0,-999.0,94,-99.99,,,-99.99,,2013-11-07 03:55:00,
2013-11-06 22:24:00,31.0,30.0,-100.00,SSW,202,1.0,-999.0,96,-99.99,,,-99.99,,2013-11-07 04:24:00,
2013-11-06 22:53:00,31.0,30.0,-100.00,South,180,1.0,-999.0,97,-99.99,,,-99.99,,2013-11-07 04:53:00,
2013-11-06 23:23:00,31.0,30.0,-100.00,SSW,202,0.0,-999.0,97,-99.99,,,-99.99,,2013-11-07 05:23:00,
2013-11-06 23:54:00,30.0,29.0,-100.00,ESE,112,0.0,-999.0,99,-99.99,,,-99.99,,2013-11-07 05:54:00,